Temperature
20 20 20 20 20 20 21 23 26 26 26 25 25 26 25 26 25 22 21 20 20 20 20 18 16 15 15 15 15 14 14 14 13 12 12 12 12 12 13 13 12 12 11 12 12 12 12 12 12
19 20 20 21 20 20 22 24 26 25 25 25 25 26 26 27 25 22 20 20 20 19 19 18 16 15 15 15 14 14 14 13 13 12 12 12 12 12 12 12 12 12 11 12 13 13 13 13 12
19 20 20 20 20 21 23 24 23 24 24 25 25 26 26 25 24 22 21 21 20 19 19 18 17 15 15 15 14 14 14 13 13 13 12 12 13 13 12 12 12 12 12 12 13 13 13 13 12
19 20 21 20 20 23 24 24 24 24 24 25 25 25 25 23 22 21 20 20 19 19 19 19 17 16 15 15 15 14 14 13 13 13 13 13 13 13 13 12 12 12 12 12 13 13 13 13 13
19 20 19 19 21 23 24 25 25 24 24 25 25 25 24 22 21 20 20 20 19 19 19 20 19 17 16 16 15 15 14 14 13 13 13 13 13 13 13 13 12 12 12 13 13 13 14 14 13
19 20 19 19 21 24 24 25 24 23 24 25 25 24 23 21 21 20 20 20 19 19 19 20 19 18 17 17 16 15 15 14 14 13 13 13 13 13 13 13 13 13 14 14 14 14 15 15 14
19 18 18 19 21 23 24 24 24 23 24 24 24 24 22 21 21 20 19 19 19 18 18 19 19 18 18 17 16 15 15 14 14 14 14 14 13 13 13 14 14 14 14 15 15 15 15 15 15
18 18 18 19 20 21 24 23 23 23 23 23 23 23 23 21 21 21 20 19 19 18 18 18 19 18 18 17 17 16 16 15 15 15 15 15 14 14 14 14 14 14 15 15 15 15 15 15 15
18 17 17 19 20 22 24 23 23 23 22 22 23 23 23 22 22 22 21 20 19 18 17 17 17 17 17 17 16 16 16 16 15 15 15 15 14 14 13 14 14 15 15 15 15 15 15 15 15
17 16 18 20 21 22 23 23 23 22 22 22 23 24 24 23 22 22 22 21 20 19 18 17 17 17 16 16 16 16 16 16 15 15 14 14 14 13 14 14 14 15 15 15 15 15 15 14 15
18 17 18 20 22 22 22 22 22 22 21 22 23 23 23 23 22 22 22 22 22 20 19 18 17 17 16 16 15 15 15 15 15 14 14 14 14 14 13 13 13 14 14 14 14 14 13 13 13
17 18 19 20 21 22 21 21 21 21 21 22 22 22 22 22 22 22 22 22 22 21 19 18 18 17 16 16 16 15 15 15 14 14 14 14 13 13 13 13 13 13 13 13 13 12 12 13 13
17 18 19 20 20 21 21 20 20 21 21 21 21 22 22 22 22 22 22 22 21 20 19 18 17 17 16 16 15 15 15 15 14 14 13 13 13 13 13 13 13 13 13 13 12 12 12 12 12
17 18 19 19 20 21 20 20 20 20 21 21 22 22 22 22 22 22 21 21 20 20 19 18 17 17 16 15 15 15 15 14 14 14 13 13 13 13 13 13 13 12 12 12 12 12 12 12 12
16 17 18 19 20 20 20 19 20 21 21 21 22 22 22 21 20 20 20 19 19 19 18 18 17 17 16 15 15 15 14 14 14 13 13 13 13 13 12 12 12 12 12 12 12 12 12 12 11
14 15 15 17 19 20 19 18 20 21 22 22 22 22 21 20 19 18 18 17 17 17 18 18 18 17 16 15 14 14 14 14 13 13 13 12 12 12 12 12 12 12 12 12 12 11 11 11 11
13 13 14 16 19 19 19 18 20 21 22 22 22 22 20 19 18 17 16 16 16 16 17 18 18 16 15 15 14 14 14 13 13 12 12 12 12 12 12 12 12 12 11 11 11 11 11 10 10
13 14 15 16 18 19 18 18 20 21 22 22 22 22 20 18 17 16 15 15 15 16 16 17 16 15 14 14 14 13 13 13 12 12 12 12 12 12 12 12 12 11 11 11 10 10 10 9 9
14 15 15 16 19 19 18 19 19 20 21 21 22 22 20 18 16 15 15 15 15 15 15 15 15 14 13 13 13 13 12 12 12 12 12 12 12 12 12 12 11 11 10 9 9 8 8 8 7
13 13 14 16 19 19 19 19 19 20 20 22 22 22 19 16 15 15 15 14 14 15 15 14 14 13 13 13 13 13 12 12 12 12 12 12 12 11 11 11 10 10 9 8 8 7 7 7 7
12 12 13 15 17 18 18 17 18 20 21 22 22 22 18 16 15 15 14 14 14 15 15 15 14 14 13 13 13 12 12 12 12 12 12 11 11 11 11 10 9 9 8 7 7 7 7 6 6
12 13 13 14 15 15 17 15 18 19 19 19 20 20 18 16 15 14 14 13 14 14 14 14 14 13 13 13 13 13 13 12 12 11 11 11 11 10 10 10 9 8 8 7 7 6 6 5 5
12 13 13 14 14 14 16 16 18 20 18 18 18 19 17 16 15 14 13 13 13 14 14 14 14 13 13 13 13 13 13 12 12 11 10 10 10 10 9 9 9 8 7 7 6 6 5 5 4
12 12 12 13 13 13 16 16 17 20 19 18 18 18 17 16 14 14 13 13 13 13 13 14 14 13 13 13 13 12 12 11 11 11 10 9 9 9 9 9 8 7 7 6 5 5 5 4 3
10 10 11 12 12 14 17 17 18 21 20 19 18 17 16 15 14 13 12 12 12 13 13 13 13 13 12 12 12 12 11 11 11 10 10 9 9 9 8 8 7 6 6 5 5 4 4 3 2
10 10 11 12 13 16 18 17 19 20 20 20 19 17 15 14 13 12 12 12 12 12 12 12 13 12 12 12 12 11 11 10 10 9 9 8 8 8 7 7 6 5 5 4 4 3 3 2 1
10 9 10 14 16 16 17 18 19 19 18 18 17 16 15 14 13 12 11 11 11 12 12 12 12 12 12 11 11 11 10 10 9 9 8 8 7 7 6 5 5 4 4 3 3 2 2 1 0
10 11 11 14 16 16 16 17 17 17 17 17 16 15 15 14 13 12 11 11 11 11 11 12 12 12 11 11 10 10 9 9 8 8 7 7 6 6 5 4 4 3 3 3 2 2 1 0 -0
10 11 13 16 18 17 16 17 19 18 17 17 16 16 15 14 13 12 11 11 10 11 11 11 11 11 11 10 10 9 8 8 7 7 6 6 5 4 4 3 3 3 2 2 2 1 -0 -1 -2
11 13 15 16 16 17 17 16 19 17 18 17 17 17 16 15 13 12 11 11 11 11 11 11 11 11 10 9 9 8 7 7 6 6 5 5 4 3 3 2 2 2 2 1 1 -1 -1 -2 -3
Wind_Speed
19 19 9 3 3 4 8 11 1 5 5 8 8 8 9 7 6 7 6 9 11 14 17 14 13 12 12 13 13 10 8 6 5 5 4 2 2 4 6 6 6 7 6 6 8 9 8 9 10
13 15 7 3 4 5 8 10 4 7 8 7 8 6 6 1 9 9 7 8 10 13 17 15 14 12 13 14 12 10 8 6 4 2 3 3 0 1 4 5 6 6 4 4 6 8 8 8 8
12 12 5 4 5 6 6 7 9 10 9 7 6 7 3 5 8 6 8 8 9 10 15 18 17 14 15 14 12 9 7 6 3 1 2 3 3 2 4 4 6 6 3 3 4 5 6 6 6
7 5 4 6 12 9 3 6 6 7 8 7 5 8 5 6 5 6 8 8 10 10 16 18 17 15 15 14 12 9 8 6 4 1 0 2 5 4 4 6 8 6 4 1 3 4 4 5 6
6 4 6 9 14 8 2 5 2 3 7 5 5 8 5 5 9 8 7 5 9 10 16 17 17 15 14 13 12 10 9 6 4 2 1 2 7 5 5 8 8 6 4 1 3 4 6 7 7
4 4 7 10 13 10 7 4 1 6 8 6 2 6 5 9 10 6 7 3 7 10 13 16 15 14 13 13 12 11 10 7 5 2 0 2 5 8 4 8 8 6 3 3 5 6 8 8 8
7 7 11 13 13 10 3 4 3 7 5 7 4 4 6 9 7 5 6 4 7 9 11 13 13 12 11 11 10 10 9 7 5 3 1 3 2 3 5 7 6 5 4 5 7 9 10 11 11
7 7 13 13 15 12 5 3 3 5 7 8 5 4 6 7 8 7 5 3 5 7 7 12 13 14 13 12 12 10 9 7 6 6 4 4 5 7 7 9 8 6 5 7 9 11 12 13 13
8 9 14 13 13 9 6 4 5 2 4 8 9 10 1 11 10 9 7 5 5 5 5 7 10 10 13 14 14 13 10 9 9 9 9 8 10 12 12 8 6 4 7 9 12 13 14 14 15
8 12 18 13 13 10 9 5 4 5 6 9 9 9 5 8 4 4 7 10 11 9 7 6 7 8 7 8 13 11 12 12 12 12 13 12 9 2 4 3 6 8 10 12 14 16 16 14 13
14 17 14 16 16 12 8 7 5 9 9 9 10 9 6 2 2 6 8 8 11 12 10 8 7 7 7 5 5 5 7 9 11 8 9 6 3 3 4 4 7 10 11 10 11 11 11 11 9
20 20 18 18 16 10 6 7 10 12 10 9 11 10 8 8 6 8 6 2 4 10 11 9 8 6 6 5 3 2 3 3 3 4 3 2 1 1 0 1 2 3 3 3 4 4 7 7 8
25 23 20 16 16 13 8 10 12 13 11 12 13 12 11 9 9 7 1 2 2 8 9 8 8 8 5 4 4 2 3 3 5 5 3 3 2 2 4 2 3 4 5 4 3 4 7 7 6
16 19 21 20 17 14 12 12 14 13 11 13 13 9 7 7 4 1 3 1 2 7 7 6 7 8 8 5 4 3 2 3 4 5 4 4 2 2 2 3 4 4 6 5 4 6 6 6 6
19 19 19 20 20 14 12 17 17 14 14 15 12 9 3 4 5 2 5 6 7 7 5 4 1 4 9 8 7 4 3 5 4 5 6 5 6 6 4 5 5 4 7 7 5 6 4 6 6
11 17 22 20 19 15 13 16 11 12 12 11 9 6 8 6 1 5 6 4 4 5 5 5 2 3 7 8 6 4 5 5 5 8 11 13 11 9 6 6 6 7 8 6 6 6 6 7 8
9 15 20 18 18 16 18 13 10 12 9 8 8 8 10 10 7 8 5 6 5 6 7 5 6 6 8 9 8 9 8 9 9 11 10 12 14 14 7 6 6 9 5 6 7 6 7 8 8
13 14 18 18 15 18 21 17 12 12 9 10 10 7 10 11 9 7 7 6 7 8 8 8 9 10 10 10 10 10 10 9 7 7 9 12 12 15 10 4 6 7 6 6 7 8 8 7 8
19 17 17 18 18 19 20 18 15 13 12 10 9 7 11 11 9 7 8 8 8 8 8 9 10 9 9 9 9 8 7 7 6 6 10 12 12 12 9 6 6 7 6 7 8 6 8 6 7
25 23 19 15 19 20 17 16 13 14 15 11 10 9 13 12 9 7 8 8 8 9 9 10 10 11 11 9 8 8 8 7 6 5 7 12 12 11 9 7 6 7 6 8 7 6 5 6 7
25 25 22 17 16 15 11 12 14 14 13 10 9 11 16 15 12 10 10 9 9 9 9 10 11 12 12 12 9 8 7 6 5 5 5 7 11 11 9 7 5 7 6 6 6 6 7 6 6
24 25 23 22 14 8 10 6 15 21 18 12 10 11 16 15 13 11 10 10 9 8 8 10 10 10 10 9 9 10 7 6 5 4 4 6 9 9 8 7 6 6 6 6 6 7 5 6 6
16 14 22 24 17 11 13 8 7 10 13 12 11 13 16 14 13 12 11 10 9 8 9 9 10 10 10 10 10 10 8 6 4 5 6 6 6 7 7 7 5 6 5 6 7 6 7 5 5
13 13 18 17 14 14 15 11 6 8 17 17 13 14 16 14 13 12 11 11 9 8 8 8 10 10 10 10 10 10 9 8 7 6 5 4 5 5 6 6 5 5 4 5 6 6 8 6 7
14 13 10 11 11 8 13 8 7 3 11 16 18 18 17 15 13 13 12 10 9 9 8 8 10 10 9 10 10 9 9 9 8 6 6 5 4 4 5 5 5 5 5 5 6 6 8 8 8
20 18 8 7 9 8 11 9 4 9 10 13 17 18 16 15 13 12 12 11 10 10 9 9 10 10 9 9 9 8 8 6 6 7 5 5 4 3 5 6 6 5 5 5 6 6 8 8 8
13 18 16 7 8 6 6 6 7 9 9 13 16 17 17 15 14 13 12 11 11 10 9 10 10 10 9 9 9 8 8 7 6 6 6 4 4 4 6 6 6 6 6 7 7 6 8 9 8
8 10 11 6 6 6 10 9 10 11 10 11 16 18 17 16 15 14 12 12 10 9 9 10 10 9 9 8 7 7 8 7 6 6 6 6 5 5 6 6 6 7 7 8 7 7 8 9 9
13 11 11 4 2 5 7 3 6 12 13 12 15 18 18 17 17 15 13 12 11 10 9 9 9 9 9 8 8 8 7 6 6 6 5 5 5 6 6 6 7 7 8 8 8 8 10 11 10
10 9 8 1 3 4 6 5 7 11 9 10 12 16 17 16 15 14 13 13 12 10 9 9 9 9 8 8 8 8 6 6 6 5 5 5 5 5 6 6 7 8 9 9 9 10 11 10 10
Wind_Direction
314 309 310 305 273 235 251 252 256 55 37 24 335 298 296 310 33 93 120 98 110 123 134 147 150 152 147 144 135 134 133 122 113 102 96 88 98 92 92 92 78 62 40 11 1 2 10 21 20
302 300 306 269 263 257 241 242 112 46 10 339 299 261 256 92 86 106 107 93 115 127 139 149 148 149 146 144 140 144 142 131 121 102 56 29 346 179 136 128 108 90 60 18 5 1 1 4 2
287 286 281 279 261 263 324 6 47 20 337 322 317 312 346 35 54 76 103 125 121 126 138 142 148 151 146 145 147 151 148 138 131 112 26 1 345 269 202 168 136 119 94 38 9 358 356 349 339
295 292 246 242 262 264 310 307 25 3 315 311 319 306 79 49 47 88 126 150 131 128 123 140 146 149 151 152 152 152 151 151 151 156 303 337 348 316 195 165 150 145 139 75 355 327 320 319 318
266 253 257 258 264 264 285 292 21 290 272 293 333 322 68 89 97 107 133 147 138 131 125 140 144 151 157 158 159 161 160 158 156 156 208 12 15 8 167 163 162 169 173 206 304 311 305 298 292
259 241 250 256 261 242 192 250 308 259 271 295 344 334 82 75 76 87 117 178 125 118 126 138 150 155 159 160 169 176 172 167 163 156 215 35 41 37 100 161 174 192 209 256 283 301 301 300 291
248 254 256 266 276 277 214 89 303 280 311 307 23 312 104 89 99 128 139 156 120 128 135 145 156 163 168 172 182 186 180 175 165 163 111 100 102 74 100 145 179 206 239 273 277 286 291 291 289
254 258 254 255 265 273 279 108 267 290 297 323 337 272 105 122 119 104 106 127 132 141 154 153 165 173 177 184 190 179 175 172 170 174 172 186 228 231 204 190 193 209 257 281 283 282 283 283 284
264 248 243 239 251 264 260 177 243 253 275 277 270 271 237 134 143 146 155 171 175 181 181 169 167 168 179 184 179 174 170 179 189 197 209 220 236 231 211 181 173 231 269 275 275 276 276 276 277
222 235 240 244 258 273 271 224 234 276 273 275 270 256 206 151 165 207 197 184 182 185 201 192 181 162 174 159 157 181 179 182 201 211 198 214 227 171 118 173 233 252 261 266 268 266 268 268 262
224 232 247 251 255 264 275 298 298 284 268 269 283 304 338 19 4 272 242 214 183 177 178 185 189 170 165 137 167 178 176 170 202 206 169 185 161 151 203 220 221 233 244 249 263 254 253 247 245
236 236 238 251 264 265 260 280 277 269 275 289 293 295 292 288 266 256 257 356 138 154 160 173 178 176 170 147 162 171 160 155 167 147 158 163 115 73 266 314 301 275 262 258 284 280 285 280 282
236 241 244 248 254 265 230 240 259 263 270 274 271 263 252 247 235 242 267 71 151 143 148 169 172 171 167 146 137 202 174 138 149 114 98 66 36 12 23 337 345 339 347 340 335 325 323 324 318
249 243 245 253 249 249 252 250 252 256 257 261 265 267 263 261 223 24 344 56 104 123 141 161 174 172 150 140 148 199 142 100 90 102 92 73 44 49 18 3 18 10 357 347 338 335 329 322 325
262 254 249 241 246 238 240 246 244 253 248 251 257 254 197 52 47 41 58 45 56 72 69 77 72 163 148 155 168 151 104 90 74 76 68 64 62 50 46 40 26 359 354 359 8 352 336 329 324
267 240 244 240 235 231 238 250 248 250 238 226 232 205 135 110 122 94 81 69 72 109 106 120 162 183 145 136 133 114 94 84 73 67 62 52 48 57 58 47 23 10 18 17 6 357 352 345 336
242 226 228 234 230 221 231 248 246 257 217 208 237 229 149 134 120 103 133 150 164 127 117 131 148 141 114 101 87 80 73 68 67 62 58 51 41 43 48 44 30 13 19 18 5 358 355 343 337
224 230 231 228 223 220 229 235 236 260 217 211 230 211 132 125 111 113 127 130 127 120 122 111 97 95 98 93 84 77 74 69 64 60 55 53 49 44 35 34 32 18 18 15 10 4 356 345 346
248 249 234 230 226 226 229 232 232 237 244 223 224 174 130 116 118 133 129 117 99 94 101 108 111 112 106 105 104 98 91 81 71 65 63 57 50 49 44 29 27 21 19 25 10 7 349 346 337
239 254 256 240 229 226 227 231 232 229 231 220 212 177 134 127 130 135 119 103 99 95 86 82 83 85 89 96 96 99 101 97 92 78 65 64 53 44 43 34 28 19 23 22 5 11 354 344 348
231 238 248 243 243 228 219 236 236 235 229 212 205 165 138 141 146 148 120 104 91 87 90 95 95 97 100 104 107 108 98 93 84 83 79 70 63 47 38 35 30 20 27 17 2 14 1 347 342
233 231 243 245 235 223 203 227 230 221 218 205 192 158 141 144 146 140 124 108 97 91 90 91 94 99 107 115 114 111 109 108 110 109 103 98 80 63 38 38 38 31 31 21 360 5 350 345 330
233 235 240 239 230 236 206 216 257 188 183 180 182 155 142 143 142 135 124 116 102 90 87 88 84 81 84 89 97 104 107 110 104 95 83 96 89 74 43 37 38 38 29 12 357 348 335 327 317
231 245 248 236 229 229 203 199 243 196 177 177 174 148 142 140 136 125 117 110 105 97 93 95 92 83 79 81 82 92 101 101 92 82 70 74 83 70 46 31 25 30 19 358 343 338 325 315 308
213 216 211 204 212 205 189 194 224 121 148 167 161 150 145 143 140 135 131 127 126 120 116 110 103 94 85 84 82 81 85 85 77 75 66 63 61 55 32 24 12 7 357 347 339 333 315 304 304
209 216 213 190 176 162 168 186 169 117 107 131 145 146 146 148 146 143 141 139 138 139 133 120 111 105 96 90 88 83 79 84 77 67 64 61 58 43 23 15 4 356 349 338 329 316 304 306 303
199 215 238 256 170 128 153 167 118 109 111 133 143 148 154 156 150 148 145 142 141 143 134 125 117 110 107 104 96 86 80 78 75 69 60 51 38 27 13 -0 357 345 333 324 316 302 302 299 297
215 200 227 236 163 140 162 178 164 162 155 155 157 161 160 158 153 152 148 143 142 136 129 128 122 117 107 96 93 91 80 74 71 64 51 41 24 17 354 353 347 332 321 314 311 306 302 302 298
191 212 228 250 157 132 141 126 132 150 158 166 168 166 164 162 158 154 150 142 133 128 129 123 121 117 112 111 103 89 78 68 68 60 44 29 17 5 352 344 330 318 310 310 311 308 308 302 300
197 217 233 140 68 38 101 101 93 109 128 156 165 164 161 156 152 150 145 138 138 142 138 133 130 120 114 107 101 97 90 72 62 53 36 25 12 353 336 325 315 310 311 310 307 305 306 300 310
Height
1513 1511 1509 1508 1508 1509 1507 1494 1481 1484 1485 1489 1491 1491 1489 1488 1490 1501 1499 1496 1496 1494 1494 1496 1497 1499 1501 1502 1504 1504 1504 1504 1503 1502 1502 1503 1504 1504 1504 1504 1504 1505 1505 1504 1504 1504 1504 1504 1504
1513 1512 1511 1508 1510 1514 1504 1488 1484 1487 1490 1491 1491 1489 1487 1486 1490 1494 1496 1496 1496 1495 1495 1496 1498 1499 1501 1502 1503 1503 1503 1503 1503 1503 1502 1503 1504 1504 1504 1503 1504 1504 1504 1503 1502 1503 1503 1502 1503
1513 1513 1512 1508 1507 1508 1499 1488 1488 1489 1491 1492 1491 1488 1487 1490 1492 1495 1496 1496 1497 1497 1496 1496 1498 1499 1501 1502 1502 1503 1503 1502 1502 1503 1503 1503 1504 1504 1504 1504 1504 1504 1504 1503 1502 1502 1501 1501 1501
1514 1513 1510 1510 1508 1495 1491 1490 1488 1492 1493 1493 1491 1490 1489 1492 1494 1496 1496 1496 1497 1497 1496 1497 1498 1499 1500 1500 1501 1502 1502 1502 1502 1502 1503 1503 1503 1504 1504 1504 1504 1504 1504 1503 1501 1501 1501 1500 1500
1514 1512 1511 1510 1502 1490 1488 1489 1490 1493 1493 1492 1492 1490 1491 1494 1494 1496 1496 1497 1498 1498 1495 1497 1497 1498 1499 1500 1501 1501 1502 1502 1502 1502 1503 1503 1503 1503 1503 1504 1504 1504 1503 1502 1502 1501 1500 1500 1500
1512 1508 1512 1511 1498 1486 1486 1489 1490 1492 1491 1491 1490 1491 1494 1494 1494 1495 1496 1497 1498 1498 1496 1497 1497 1498 1498 1499 1500 1501 1500 1501 1502 1502 1502 1502 1503 1503 1503 1503 1504 1504 1503 1502 1502 1501 1500 1499 1499
1511 1508 1508 1504 1498 1489 1485 1487 1490 1490 1490 1491 1490 1492 1493 1493 1493 1494 1496 1497 1497 1497 1496 1495 1497 1498 1498 1498 1499 1500 1500 1501 1501 1501 1502 1502 1503 1503 1503 1504 1504 1503 1502 1502 1501 1500 1500 1499 1498
1507 1506 1503 1501 1499 1491 1484 1486 1490 1491 1491 1490 1490 1490 1491 1493 1493 1493 1495 1496 1496 1496 1496 1495 1496 1497 1498 1498 1499 1500 1499 1500 1501 1501 1501 1502 1503 1503 1504 1503 1503 1503 1502 1501 1501 1500 1499 1498 1497
1504 1506 1502 1497 1495 1488 1483 1485 1489 1489 1490 1490 1490 1490 1490 1490 1492 1492 1493 1493 1494 1494 1495 1496 1496 1497 1497 1497 1498 1499 1499 1500 1501 1501 1501 1502 1503 1503 1503 1503 1503 1503 1502 1501 1501 1500 1499 1497 1496
1500 1500 1494 1490 1487 1484 1483 1483 1486 1487 1487 1488 1487 1487 1487 1488 1490 1492 1492 1492 1491 1492 1493 1495 1496 1497 1497 1498 1498 1498 1498 1499 1500 1500 1501 1502 1503 1504 1505 1504 1504 1502 1501 1501 1500 1499 1497 1496 1494
1492 1491 1489 1487 1485 1483 1482 1483 1484 1486 1486 1486 1486 1485 1485 1486 1488 1490 1490 1491 1490 1489 1491 1493 1494 1495 1496 1497 1498 1498 1498 1499 1500 1502 1503 1503 1503 1504 1504 1504 1503 1501 1500 1499 1498 1497 1495 1494 1492
1488 1485 1486 1485 1484 1481 1481 1482 1484 1484 1484 1484 1483 1483 1483 1484 1486 1487 1488 1488 1488 1488 1489 1490 1492 1493 1494 1495 1497 1498 1498 1499 1500 1502 1503 1504 1504 1503 1504 1503 1503 1501 1500 1499 1498 1497 1495 1494 1493
1483 1482 1483 1482 1481 1479 1479 1481 1482 1481 1481 1481 1481 1480 1479 1480 1482 1484 1484 1484 1486 1487 1487 1489 1490 1490 1492 1494 1495 1497 1499 1499 1500 1501 1502 1503 1503 1503 1502 1502 1502 1501 1500 1499 1497 1495 1493 1491 1489
1479 1479 1479 1479 1477 1477 1477 1477 1478 1475 1477 1477 1476 1475 1475 1476 1477 1478 1480 1481 1483 1484 1484 1486 1487 1488 1489 1491 1494 1496 1498 1498 1499 1500 1501 1502 1502 1501 1501 1501 1500 1499 1498 1496 1495 1493 1491 1489 1487
1479 1477 1474 1472 1472 1472 1475 1474 1471 1470 1472 1471 1471 1471 1471 1472 1472 1475 1476 1477 1478 1479 1480 1482 1484 1486 1487 1489 1492 1494 1495 1497 1498 1498 1499 1500 1499 1498 1498 1498 1497 1497 1496 1495 1493 1491 1488 1486 1484
1477 1476 1474 1465 1466 1468 1474 1471 1464 1464 1463 1464 1466 1467 1467 1469 1471 1472 1473 1473 1474 1476 1477 1478 1480 1482 1485 1488 1491 1493 1494 1495 1495 1496 1497 1497 1497 1496 1495 1495 1494 1494 1493 1492 1490 1488 1485 1482 1479
1475 1471 1467 1464 1460 1462 1466 1465 1460 1460 1458 1460 1462 1463 1464 1466 1469 1470 1471 1471 1473 1474 1474 1475 1477 1480 1483 1486 1489 1489 1491 1492 1492 1494 1495 1495 1495 1494 1494 1493 1492 1491 1490 1489 1486 1484 1481 1477 1474
1468 1464 1462 1461 1456 1457 1459 1459 1455 1456 1455 1456 1458 1459 1461 1464 1467 1469 1470 1471 1472 1472 1473 1474 1475 1478 1481 1484 1485 1487 1488 1490 1492 1493 1494 1495 1495 1494 1493 1492 1491 1489 1487 1485 1483 1480 1477 1475 1471
1464 1459 1458 1454 1451 1452 1452 1452 1450 1451 1450 1451 1453 1455 1458 1462 1466 1469 1470 1471 1471 1472 1472 1474 1475 1478 1480 1482 1484 1485 1487 1490 1492 1493 1494 1494 1494 1493 1492 1491 1489 1487 1484 1482 1480 1477 1475 1472 1469
1465 1463 1459 1452 1446 1446 1447 1446 1443 1444 1444 1445 1448 1451 1454 1460 1465 1468 1470 1470 1470 1470 1472 1473 1475 1478 1479 1480 1482 1485 1488 1490 1492 1493 1494 1494 1493 1492 1490 1488 1486 1484 1482 1480 1477 1475 1473 1471 1468
1459 1460 1459 1455 1446 1441 1445 1446 1441 1437 1436 1439 1442 1445 1450 1457 1463 1466 1468 1468 1469 1470 1471 1473 1475 1477 1479 1481 1483 1486 1489 1491 1493 1493 1493 1493 1492 1491 1489 1487 1484 1482 1480 1478 1476 1473 1471 1469 1467
1453 1451 1455 1453 1453 1449 1444 1453 1435 1428 1431 1433 1437 1442 1447 1454 1460 1464 1466 1467 1469 1470 1472 1474 1476 1478 1480 1482 1483 1485 1488 1490 1492 1492 1492 1491 1491 1489 1486 1484 1482 1480 1478 1476 1474 1472 1470 1468 1465
1447 1449 1453 1451 1450 1449 1440 1443 1430 1414 1425 1429 1433 1438 1444 1451 1457 1461 1464 1466 1468 1471 1472 1475 1477 1478 1480 1482 1484 1486 1488 1490 1490 1490 1490 1488 1487 1486 1484 1482 1480 1478 1476 1474 1472 1470 1468 1466 1463
1445 1452 1450 1445 1448 1447 1433 1435 1430 1412 1416 1423 1429 1434 1441 1449 1455 1459 1462 1465 1468 1471 1473 1476 1478 1479 1481 1482 1484 1486 1487 1488 1488 1488 1488 1487 1485 1484 1483 1481 1479 1476 1474 1472 1470 1468 1465 1463 1460
1445 1451 1446 1444 1443 1434 1419 1424 1420 1402 1403 1412 1422 1431 1439 1447 1452 1456 1460 1464 1467 1470 1474 1476 1478 1479 1480 1482 1483 1484 1485 1486 1487 1487 1486 1485 1484 1482 1480 1478 1476 1474 1472 1469 1467 1465 1462 1459 1456
1435 1443 1438 1432 1431 1418 1409 1418 1410 1401 1404 1409 1418 1428 1437 1445 1450 1454 1458 1463 1466 1470 1473 1475 1477 1478 1479 1481 1481 1482 1483 1484 1485 1485 1484 1483 1482 1480 1478 1476 1473 1471 1469 1466 1464 1461 1458 1455 1451
1429 1434 1428 1416 1403 1410 1413 1408 1408 1404 1408 1412 1419 1428 1435 1443 1448 1452 1457 1462 1465 1469 1472 1474 1475 1476 1478 1479 1480 1481 1482 1483 1483 1483 1482 1481 1479 1477 1475 1472 1470 1468 1466 1463 1460 1457 1454 1450 1446
1419 1419 1422 1408 1400 1411 1413 1412 1413 1411 1412 1413 1419 1425 1432 1440 1445 1450 1456 1460 1464 1467 1470 1472 1473 1475 1476 1477 1479 1479 1480 1481 1481 1481 1480 1478 1476 1474 1471 1469 1467 1465 1463 1460 1457 1453 1448 1444 1440
1415 1414 1404 1391 1381 1398 1415 1413 1393 1399 1405 1410 1415 1421 1428 1435 1441 1447 1453 1457 1461 1465 1467 1469 1471 1472 1474 1475 1476 1478 1479 1479 1479 1478 1477 1475 1473 1471 1468 1466 1464 1462 1459 1456 1451 1447 1442 1438 1434
1401 1396 1391 1391 1392 1390 1401 1416 1393 1397 1401 1405 1411 1418 1425 1433 1439 1445 1450 1454 1458 1461 1464 1466 1468 1470 1472 1473 1474 1475 1477 1477 1476 1475 1474 1472 1470 1468 1466 1463 1461 1458 1454 1450 1445 1440 1436 1432 1427